Presure
129 137 139 129 140 138 116 136 133 144 146 132 128 129 125 132 138 152 145 131 135 136 128 150 194 199 199 130 171 167 196 196 147 137 136 124 129 132 137 118 129 141 147 156
136 125 131 130 136 120 110 119 101 104 126 129 135 129 132 130 133 138 124 145 137 128 134 138 149 196 187 184 152 177 193 176 149 130 144 137 126 115 121 126 117 123 127 127
133 150 158 141 145 143 127 145 139 146 125 129 152 132 139 129 128 133 134 134 130 132 129 136 143 204 202 182 152 177 143 173 150 138 143 134 127 136 111 133 120 134 115 140
137 119 151 153 153 127 149 103 139 146 159 130 155 121 131 184 129 130 132 136 141 127 132 127 134 155 200 183 171 183 168 112 171 129 150 144 137 112 130 133 138 128 141 140
176 172 154 141 149 150 137 142 140 134 142 113 128 128 127 161 128 131 135 147 128 136 138 128 132 141 169 198 184 155 179 126 170 163 139 135 142 125 121 140 141 140 127 127
198 172 171 152 150 128 113 162 147 89 119 113 132 172 146 156 132 133 132 133 138 139 134 133 133 139 151 207 195 175 184 169 151 155 111 134 117 133 142 128 137 134 141 148
199 155 169 178 176 173 186 131 153 135 140 144 160 140 108 171 216 144 129 134 132 139 126 133 130 136 141 162 199 184 185 181 112 133 130 143 130 131 130 138 116 131 136 135
206 156 174 175 122 189 133 197 96 137 143 150 143 149 163 205 144 202 218 133 125 140 138 130 135 130 141 153 163 180 173 173 165 133 120 114 145 133 137 135 139 141 136 134
206 207 212 208 206 188 196 193 182 162 97 204 130 108 162 202 131 142 131 125 131 136 129 138 132 133 137 142 151 186 179 199 181 159 129 122 121 137 120 139 128 129 142 141
204 201 200 203 210 212 194 190 174 134 133 126 119 160 167 199 140 166 204 186 137 131 159 134 139 134 128 135 142 154 184 196 187 174 156 121 118 114 135 116 122 132 136 124
214 204 205 197 200 193 212 209 156 168 182 185 187 191 86 178 126 128 119 135 188 135 127 144 129 129 133 134 138 150 193 181 193 173 163 152 121 126 167 161 115 123 123 124
217 216 205 203 184 194 179 186 185 181 169 116 186 183 94 96 96 100 202 201 198 130 189 132 126 142 141 131 131 138 167 201 192 192 167 157 151 119 123 119 121 121 118 119
144 199 208 202 208 195 206 194 189 184 187 182 182 183 187 106 163 117 109 168 155 139 156 142 134 136 155 148 131 128 137 151 178 173 168 159 156 156 149 123 120 133 113 119
246 243 205 208 108 152 201 196 193 196 141 189 189 189 134 193 197 202 212 118 127 141 138 193 157 188 162 143 144 140 135 135 150 154 180 172 164 160 158 155 145 125 159 118
208 258 226 199 104 89 76 196 152 188 185 128 153 192 193 189 195 85 169 154 222 129 188 144 145 191 173 187 139 141 154 124 134 148 153 170 173 172 172 160 165 167 162 143
238 161 244 215 203 153 189 86 196 191 188 188 188 191 197 195 194 189 196 172 95 104 107 110 104 139 149 180 128 132 162 167 149 129 133 149 153 176 177 162 162 188 144 149
252 214 199 227 214 211 197 174 159 198 198 194 189 185 188 192 193 187 195 208 211 217 209 121 200 109 154 141 142 147 132 137 142 145 137 127 134 148 151 171 174 181 183 182
250 226 203 229 228 223 205 198 178 186 172 140 138 194 96 125 134 190 201 199 173 211 108 218 210 200 148 123 125 182 144 134 133 136 139 143 139 131 134 140 144 143 148 148
248 239 206 120 236 203 198 208 186 107 163 96 191 198 193 158 205 183 199 194 210 212 212 216 201 197 164 123 177 201 136 153 135 136 131 129 129 136 141 138 141 143 139 142
189 240 213 207 81 208 220 221 167 172 175 170 159 180 185 198 142 152 197 196 197 209 203 139 203 196 84 191 190 183 128 142 144 124 144 156 131 134 139 139 139 142 145 145
198 207 193 79 201 197 192 222 214 198 103 180 190 190 196 142 202 183 190 201 193 192 197 229 233 208 201 194 191 192 187 121 135 133 124 169 162 134 134 137 134 135 136 136
216 189 233 219 142 125 206 84 225 219 199 200 190 203 202 198 182 187 195 190 190 189 186 193 198 251 228 203 198 186 188 176 187 160 129 160 159 179 176 172 147 128 131 132
221 205 231 237 225 201 203 212 239 233 218 209 208 210 201 194 186 183 86 199 176 188 188 188 189 189 210 243 225 199 198 193 189 187 186 190 192 187 185 185 185 180 181 175
272 214 196 240 213 227 242 224 218 227 230 133 217 207 192 191 188 114 181 199 184 182 182 191 189 188 189 188 220 233 245 217 203 196 193 191 186 184 183 181 180 180 185 186
298 234 216 201 215 247 243 225 216 115 217 228 215 214 198 196 163 184 181 186 186 181 176 189 184 190 191 194 186 189 214 225 230 233 235 239 215 193 191 189 198 220 199 211
308 251 214 204 236 243 236 219 86 142 167 106 223 215 203 123 197 185 183 180 178 208 208 171 185 186 189 194 185 198 191 189 190 195 213 221 224 219 214 209 204 206 202 190
Wind_Speed
47 47 56 39 41 29 36 37 35 36 30 22 22 20 18 17 21 16 14 19 13 7 10 10 3 7 11 12 15 17 19 25 24 19 15 12 14 12 9 7 9 9 10 10
41 60 45 38 42 36 29 35 14 12 25 25 23 24 23 22 23 17 20 14 11 9 11 9 8 8 11 12 13 20 22 26 27 17 21 16 12 4 7 6 1 4 6 5
55 70 55 54 56 52 41 54 47 46 28 27 28 30 26 28 29 24 25 17 12 12 13 11 9 12 15 13 16 21 23 29 28 21 23 16 11 11 8 6 4 2 1 5
61 39 55 56 57 49 60 19 44 44 49 32 39 31 34 35 33 31 27 27 22 18 16 14 12 10 15 15 17 24 23 21 33 18 26 22 16 7 10 8 6 2 2 4
84 81 62 56 65 61 57 48 42 38 44 26 36 37 39 39 31 33 30 27 21 27 22 16 16 13 3 23 20 20 27 25 32 34 24 16 18 13 9 9 7 5 5 3
85 79 69 67 64 58 41 61 54 24 34 34 42 52 40 35 34 34 33 30 30 31 21 23 20 15 8 28 26 20 26 29 29 31 20 19 14 13 16 10 9 8 4 4
86 71 76 82 79 77 74 53 58 52 55 60 62 39 29 45 50 34 34 36 34 34 27 23 23 17 13 4 27 22 26 30 18 28 26 28 17 16 13 14 14 10 7 7
86 76 79 83 55 78 55 72 40 56 57 63 33 41 58 52 33 40 42 38 38 38 32 27 27 20 18 12 8 25 24 32 35 31 27 27 29 20 17 15 15 14 11 10
87 82 88 89 86 84 78 69 66 67 32 63 40 24 53 46 42 37 40 36 42 42 33 33 28 26 23 18 14 29 29 36 37 36 30 28 26 23 17 20 15 16 15 16
92 100 97 88 87 81 77 78 69 53 46 50 46 59 60 46 44 44 40 38 46 40 39 35 36 30 24 24 22 17 32 35 38 35 32 35 33 33 29 29 23 20 19 17
98 95 95 98 87 74 70 68 42 44 55 58 58 58 14 47 32 38 40 36 46 45 36 43 31 28 30 27 25 25 36 30 37 32 32 35 37 35 30 31 32 27 22 18
99 93 98 88 73 78 71 75 74 66 71 30 61 60 40 39 34 33 48 47 47 44 43 38 33 41 38 28 24 24 25 34 30 30 33 35 36 40 39 37 33 30 27 25
44 88 94 84 87 77 73 70 70 69 70 67 67 68 59 13 36 35 43 52 45 52 48 44 40 39 42 41 30 25 24 23 34 36 36 36 36 37 36 37 36 30 33 32
93 96 88 79 29 41 70 68 68 65 44 68 67 67 37 55 49 45 49 44 53 50 50 50 46 52 45 42 39 33 28 28 29 27 37 37 37 38 33 34 36 37 35 33
89 88 89 81 31 16 7 71 53 61 64 42 56 64 60 58 55 23 46 40 56 48 53 51 51 54 50 51 39 35 37 28 28 29 26 33 38 37 35 32 34 35 37 35
92 65 89 90 85 56 78 23 69 72 73 73 75 66 62 61 57 54 52 48 30 33 35 26 30 50 48 50 34 38 43 42 38 27 28 29 28 37 37 35 36 38 36 37
93 91 66 86 92 91 76 68 55 71 74 73 74 71 61 62 56 57 58 52 53 58 57 38 59 39 54 51 41 50 40 41 40 38 36 36 36 34 33 38 37 38 38 39
93 93 86 92 97 89 80 80 72 67 71 44 41 76 12 36 35 56 55 52 45 52 32 55 55 53 52 45 48 54 52 49 42 42 42 43 41 37 39 41 41 39 39 40
93 93 92 35 94 77 77 86 78 25 83 32 78 79 74 52 61 50 51 50 46 47 47 52 52 57 56 53 58 52 58 56 51 47 39 39 42 45 47 44 44 45 42 44
75 94 99 90 16 91 97 89 57 80 84 75 44 82 75 67 38 44 50 51 49 46 48 35 56 59 27 63 65 65 49 60 59 33 50 52 49 50 51 46 48 49 49 50
84 87 83 20 95 94 84 89 89 95 21 81 89 87 80 42 51 44 47 51 48 48 50 44 48 58 63 62 63 64 64 45 51 51 49 58 59 53 48 51 46 42 45 46
95 86 103 101 48 47 96 24 96 95 86 89 86 93 77 58 50 49 48 54 53 55 54 54 54 41 53 62 63 63 65 64 66 57 55 58 57 64 62 63 54 43 46 47
95 92 101 105 106 95 94 94 97 97 96 91 90 92 75 55 54 55 21 57 60 60 59 58 56 55 50 43 53 63 68 68 66 65 64 64 64 64 63 61 62 60 62 64
106 96 78 99 89 93 106 97 88 90 95 49 87 81 68 58 59 33 61 62 55 67 66 61 57 58 56 55 44 46 45 61 65 67 68 67 65 64 63 64 62 62 62 59
110 100 84 71 86 98 101 95 87 28 84 90 79 75 69 63 48 65 65 65 68 73 66 64 61 58 57 55 61 61 51 51 51 49 47 47 56 66 65 63 61 50 56 47
105 96 88 82 94 94 96 89 13 56 53 36 73 70 66 16 67 69 69 72 77 69 63 62 63 62 61 62 65 59 58 58 56 54 50 49 48 49 51 52 52 49 49 54
Wind_Direction
241 247 246 231 245 227 234 249 256 252 240 224 227 224 245 239 247 243 215 231 236 246 291 340 297 210 201 203 191 199 159 153 199 198 191 172 150 157 160 142 129 108 95 83
240 240 238 238 241 231 236 239 187 193 229 226 220 223 213 231 242 241 232 224 217 232 261 268 302 212 214 214 181 201 166 178 200 212 198 186 165 251 169 160 196 131 113 124
235 241 241 241 244 245 239 244 241 249 233 226 249 220 234 219 233 235 248 242 229 233 239 255 280 213 204 219 197 209 189 187 202 212 209 207 188 184 281 189 249 0 158 92
237 240 242 238 238 237 242 214 245 244 250 240 259 232 230 250 226 229 233 252 231 232 230 241 251 287 220 219 207 214 216 220 195 213 213 208 204 253 200 188 182 241 38 23
242 243 238 236 237 237 245 245 240 242 247 217 236 227 229 250 231 234 225 238 245 237 230 234 236 253 303 211 208 202 218 205 205 208 216 222 218 213 229 220 200 185 258 242
241 244 245 243 242 238 239 245 242 216 228 230 238 244 225 242 228 224 236 239 230 235 237 235 239 241 263 215 213 221 215 217 212 218 233 223 225 223 226 230 228 203 223 237
241 237 235 243 244 244 248 235 237 233 236 237 239 239 214 244 244 234 233 232 239 238 237 233 238 236 241 223 213 215 214 220 250 219 230 224 221 229 231 233 256 233 236 241
236 238 239 241 234 240 234 241 240 233 238 243 242 248 247 240 210 237 244 227 237 239 234 238 238 233 233 239 255 213 213 212 217 211 214 231 231 228 235 240 244 247 249 248
232 234 236 236 235 237 236 238 238 235 220 240 232 207 245 248 219 211 229 226 230 229 231 234 237 237 239 234 228 223 217 217 217 217 211 215 214 228 215 244 234 238 244 247
223 225 228 228 230 229 233 235 237 234 239 237 228 244 247 241 229 239 242 238 232 237 225 230 232 234 231 235 232 227 221 222 221 222 222 217 218 225 233 240 239 238 245 249
226 229 229 229 228 229 231 234 227 228 242 243 245 241 209 236 223 226 224 225 235 237 239 231 239 240 234 235 234 229 219 223 222 224 222 224 216 224 242 242 239 231 237 244
224 225 230 233 229 229 231 231 232 233 238 222 235 240 229 231 233 232 235 229 231 239 230 241 236 236 237 237 233 232 218 217 220 227 219 223 227 226 228 235 235 238 247 245
215 221 227 228 229 228 230 232 233 233 235 240 242 243 243 258 237 226 234 233 231 225 224 238 240 239 235 236 232 233 236 224 219 221 225 228 232 237 237 234 238 239 255 245
219 220 223 225 216 227 232 230 232 232 229 237 239 240 234 240 240 234 226 242 234 226 231 222 233 223 231 238 239 236 239 240 230 227 226 229 234 240 245 242 246 242 255 254
217 216 218 219 213 248 166 227 226 229 230 230 235 234 233 234 233 224 228 227 225 228 223 231 232 222 225 223 238 239 228 238 241 236 227 235 240 245 248 249 254 257 258 254
209 217 210 215 217 218 214 202 223 223 224 226 232 232 228 227 226 230 228 222 242 235 230 220 233 236 230 228 235 236 233 232 242 230 238 237 241 255 256 250 252 257 261 264
206 210 207 211 217 218 213 215 226 224 225 224 230 231 226 231 224 226 230 227 222 225 224 228 222 235 230 237 235 234 244 243 241 238 235 239 243 246 247 252 254 258 261 265
204 207 208 209 214 215 215 215 214 220 226 238 240 233 204 223 218 224 230 229 228 228 232 224 226 228 234 235 237 233 235 240 239 240 238 237 244 246 249 250 250 252 253 256
202 203 207 218 211 209 213 212 212 238 225 253 229 227 226 228 230 222 232 233 233 232 233 228 225 227 228 236 232 231 236 235 240 240 239 241 246 248 248 252 254 255 257 257
213 202 207 210 177 211 213 210 212 216 220 221 224 229 225 232 226 222 234 235 233 229 228 229 225 225 226 227 229 231 242 238 238 239 240 241 246 248 250 252 254 256 259 262
206 203 211 219 210 215 216 211 209 212 212 222 227 233 234 227 226 227 237 235 236 235 230 224 224 228 230 230 232 234 237 240 246 246 241 246 244 251 255 254 261 264 266 268
200 213 204 207 213 217 215 209 212 213 219 218 226 234 230 221 221 224 228 233 231 232 233 233 232 221 227 233 233 237 237 239 240 242 251 245 247 248 249 251 258 261 265 268
200 209 205 206 210 210 214 216 214 214 217 219 222 231 232 222 221 223 211 222 232 232 231 231 233 233 229 224 231 236 239 242 243 245 246 246 247 249 252 253 257 260 262 265
203 205 219 207 214 212 214 216 213 216 217 225 221 225 229 224 224 223 228 230 221 230 233 230 230 233 234 234 231 229 224 237 241 244 246 248 250 252 253 255 257 259 262 265
204 204 214 220 212 214 218 218 217 197 219 220 221 223 222 224 219 225 231 234 230 229 230 228 229 231 231 231 236 238 233 229 230 229 230 231 243 252 254 255 254 241 259 250
209 207 211 217 215 215 218 219 261 206 223 232 222 222 221 237 221 223 226 232 237 236 225 237 231 231 231 231 236 236 237 239 241 242 239 237 234 235 237 243 247 250 247 255